This is the latest recevied weather packets stored in our database for station/object KB9PVH-3. If no packets are shown the sender has not sent any weather packets the latest 10 day(s).
| Time | Temp. | Humidity | Pressure | Rain* | Wind** | Luminosity | Snow |
|---|---|---|---|---|---|---|---|
| 1777975746 | 6.11° C | 55% | 1008.3 hPa | 0 mm | - | - | - |
| 1777974694 | 6.11° C | 55% | 1008.2 hPa | 0 mm | - | - | - |
| 1777973644 | 6.11° C | 55% | 1008.5 hPa | 0 mm | - | - | - |
| 1777972594 | 6.11° C | 55% | 1008.2 hPa | 0 mm | - | - | - |
| 1777971544 | 6.67° C | 55% | 1007.9 hPa | 0 mm | - | - | - |
| 1777970494 | 6.67° C | 53% | 1007.6 hPa | 0 mm | - | - | - |
| 1777969444 | 7.22° C | 54% | 1007 hPa | 0 mm | - | - | - |
| 1777968394 | 7.22° C | 55% | 1006.5 hPa | 0 mm | - | - | - |
| 1777967344 | 7.78° C | 56% | 1006.3 hPa | 0 mm | - | - | - |
| 1777966294 | 7.78° C | 54% | 1006.6 hPa | 0 mm | - | - | - |
| 1777964196 | 8.89° C | 54% | 1005.9 hPa | 0 mm | - | - | - |
| 1777963144 | 8.89° C | 54% | 1005.6 hPa | 0 mm | - | - | - |
| 1777961048 | 10° C | 53% | 1005.3 hPa | 0 mm | - | - | - |
| 1777959994 | 10° C | 51% | 1005.2 hPa | 0 mm | - | - | - |
| 1777958944 | 10.56° C | 52% | 1005.3 hPa | 0 mm | - | - | - |
| 1777957895 | 11.11° C | 51% | 1004.6 hPa | 0 mm | - | - | - |
| 1777956844 | 11.67° C | 50% | 1003.9 hPa | 0 mm | - | - | - |
| 1777955794 | 12.22° C | 50% | 1003.8 hPa | 0 mm | - | - | - |
| 1777954748 | 12.78° C | 47% | 1003.7 hPa | 0 mm | - | - | - |
| 1777952644 | 13.33° C | 39% | 1003.3 hPa | 0 mm | - | - | - |
| 1777951594 | 13.89° C | 40% | 1003.1 hPa | 0 mm | - | - | - |
| 1777950544 | 14.44° C | 38% | 1002.7 hPa | 0 mm | - | - | - |
| 1777949494 | 15° C | 37% | 1002.3 hPa | 0 mm | - | - | - |
| 1777948447 | 15° C | 39% | 1001.9 hPa | 0 mm | - | - | - |
| 1777947393 | 15.56° C | 36% | 1001.1 hPa | 0 mm | - | - | - |
* Rain latest hour (hover to see other rain measurements)
** Current wind speed in m/s (hover to see current wind gust speed)